Regional Weather Roundup
Issued by NWS Bismarck, ND

Home | Current Version | Previous Version | Text Only | Print | Product List | Glossary On
Versions: 1 2 3 4 5 6 7 8 9 10 11 12 13 14 15 16 17 18 19 20 21 22 23 24 25 26 27 28 29 30 31 32 33 34 35 36 37 38 39 40 41 42 43 44 45 46 47 48 49 50
000
ASUS43 KBIS 300010
RWRBIS

NWR BROADCAST TEXT
NATIONAL WEATHER SERVICE BISMARCK ND
700 PM CDT MON JUN 29 2015

NOTE: "FAIR" INDICATES FEW OR NO CLOUDS BELOW 12,000 FEET WITH NO
SIGNIFICANT WEATHER AND/OR OBSTRUCTIONS TO VISIBILITY.


CITY           SKY/WX    TMP DP  RH WIND       PRES   REMARKS
WILLISTON      MOSUNNY   92  58  31 NE18      29.92R HX  91
MINOT          SUNNY     86  56  35 NW8       29.89S
MINOT AFB      SUNNY     90  56  31 N6        29.87F
BISMARCK       SUNNY     90  57  32 W7        29.90F
DICKINSON      SUNNY     90  61  37 W7        29.90F HX  90
GARRISON         N/A     86  57  37 SE6       29.90F
HETTINGER ARPT SUNNY     87  65  47 SW5       29.96F
JAMESTOWN      PTSUNNY   78  65  63 NE6       29.91S
BEACH          FAIR      88  59  37 N7        29.95F
CROSBY         FAIR      82  63  51 N10       29.95S
HARVEY         FAIR      82  61  47 E10       29.91F
HAZEN            N/A     90  55  31 E6        29.90F
LINTON         FAIR      84  64  51 NW7       29.92F
MANDAN         FAIR      90  57  33 CALM      29.92F
OAKES            N/A     77  66  69 N9        29.90R
STANLEY        FAIR      84  61  45 NE8       29.94S
$$

CITY           SKY/WX    TMP DP  RH WIND       PRES   REMARKS
GRAND FORKS    CLOUDY    73  63  70 NW10      29.88R
GRAND FORKS AF SUNNY     73  63  71 N10       29.89S
DEVILS LAKE    MOSUNNY   75  61  60 NE6       29.92F
FARGO          SUNNY     75  64  68 NW13      29.86S
CANDO          FAIR      73  63  68 NE7       29.94S
CAVALIER       FAIR      73  63  68 N7        29.90F
GRAFTON        FAIR      72  61  68 N9        29.90S
LANGDON        FAIR      70  63  78 NE6       29.95S
ROLLA          FAIR      72  61  68 E7        29.96F
WALHALLA       FAIR      73  66  78 MISG      29.92S
$$

CITY           SKY/WX    TMP DP  RH WIND       PRES   REMARKS
ABERDEEN       MOSUNNY   86  63  45 NE9       29.88S HAZE
MOBRIDGE       MOSUNNY   92  60  34 NE5       29.90F HX  91
BUFFALO          N/A     92  56  29 W8        29.93F HX  90
RAPID CITY     SUNNY     85  61  44 S5        30.05S
GLASGOW        PTSUNNY   91  49  23 NE15      29.93F
SIDNEY         SUNNY     93  52  24 N13       29.91S HX  90
WOLF POINT     MOSUNNY   96  53  23 N17       29.92F HX  93
GLENDIVE       SUNNY     93  43  17 N10       29.94F
MILES CITY     MOSUNNY   97  41  14 NW8       29.94F HX  92
BAKER          SUNNY     92  51  24 N10       29.97F
$$

CITY           SKY/WX    TMP DP  RH WIND       PRES   REMARKS
BILLINGS       MOSUNNY   97  37  12 SE9       30.01F HX  92
GREAT FALLS    CLOUDY    94  49  21 NE12      30.00F HX  90
REGINA           N/A     72  54  53 N13       30.02F SMOKE
ESTEVAN        CLOUDY    82  64  54 N8        29.94S SMOKE
$$




USA.gov is the U.S. government's official web portal to all federal, state and local government web resources and services.